CZ-6A DEB, 61481

Orbit data source: Space-Track

CZ-6A DEB, 61481 is space debris in LEO originally from a launch on Tue, 06 Aug 2024 UTC launched from the Taiyaun Space Center, China (TSC). Debris objects in space refer to the collection of defunct objects orbiting the Earth. Examples of debris include non-operational satellites, rocket bodies, and fragments generated from explosions, collisions, or faulty payload assembly.

Loading next visibility...
Identifier
61481, 2024-140AAP
Orbit
LEO
Country
Flag of CNCN / PRC
Related business
Manufacturer
SAST
Mission
Spacecraft
Bus & Motor
Unknown
Mass
Unknown
Launch date (UTC)
2024-08-06 (2 years ago)
Launch vehicle
Unknown
Launch site
Taiyaun Space Center, China (TSC)
Object type
Payload
Rocket body
Debris
Shape & HBR
Unknown shape, 0.1 m
Radar Cross Section
Medium (>0.1 m² and <1 m²)

Expand to show TLE details & history
Last TLE update: 15 hours ago

TLE from 15 hours ago
0 CZ-6A DEB
1 61481U 24140AAP 26171.23071727  .00003327  00000-0  13940-2 0  9991
2 61481  88.8818 265.3434 0143903 115.8013 245.8104 14.20357033 92563
Epoch: 2026-06-20T05:32Z
TLE epoch observation values (Epoch: 2026-06-20T05:32:13.972Z)
Latitude
-0.00004°
Longitude
-86.16314°
Altitude
870.908 km
Speed
7.394 km/s
True Right ascension
17h 41m 22s
True Declination
0° 00' 00"
Sunlit
Object was in full shadow at epoch
Visualization orbit readout
Latitude
Unknown
Longitude
Unknown
Altitude
Unknown
Speed
Unknown
Apparent Right ascension
Unknown
Apparent Declination
Unknown
Sunlit
N/A
Visualization observer readout
Local Sidereal Time
07:24:17
Azimuth
Unknown
Elevation
Unknown
Doppler factor
Unknown
Orbital elements
Apogee altitude
924.695 km
Perigee altitude
717.497 km
Semi-major axis
7,199.233 km
Eccentricity
0.01439
Inclination
88.8818°
RAAN
265.3434°
Arg. of periapsis
115.8013°
True anomaly
244.31736°
Mean anomaly
245.8104°
Eccentric anomaly
245.06276°
Mean motion
3.55315 °/min
Orbital period
101.32 mins
BSTAR
0.001394
Loading maneuver chart data...
Computing Atmospheric mass density...
Loading historical data...
Loading historical data...
Loading historical data...
Loading historical data...
Loading historical data...
Loading historical data...
Loading historical data...

Documentation

Showing up to 5 results
|